Location: Malvern Link
(52.1333°N, 2.3000°W)
Time: 15:32:30
(UTC+00:00)

Cosmos 1634 Rocket - Pass Details

Date: 04 December 2021
Orbit: 959 x 993 km, 82.9° (Epoch: 23 January)

Event Time Altitude Azimuth Distance (km) Brightness Sun altitude
Rises 19:21:45 0° 226° (SW) 3,700 7.6 -29.9°
Reaches altitude 10° 19:24:38 10° 237° (WSW) 2,757 7.0 -30.4°
Maximum altitude 19:30:03 29° 296° (WNW) 1,742 5.8 -31.2°
Drops below altitude 10° 19:35:30 10° 355° (N) 2,767 6.4 -32.1°
Sets 19:38:25 0° 7° (N) 3,717 7.0 -32.5°
